This is the latest recevied weather packets stored in our database for station/object N8VDS-10. If no packets are shown the sender has not sent any weather packets the latest 10 day(s).
| Time | Temp. | Humidity | Pressure | Rain* | Wind** | Luminosity | Snow |
|---|---|---|---|---|---|---|---|
| 1777701403 | 2.78° C | 81% | 1021 hPa | 0 mm | - | 0 W/m² | - |
| 1777701101 | 2.78° C | 81% | 1020.9 hPa | 0 mm | - | 0 W/m² | - |
| 1777700800 | 2.78° C | 81% | 1021 hPa | 0 mm | - | 0 W/m² | - |
| 1777700496 | 2.78° C | 81% | 1021.2 hPa | 0 mm | - | 0 W/m² | - |
| 1777700194 | 2.78° C | 81% | 1021.1 hPa | 0 mm | - | 0 W/m² | - |
| 1777699891 | 2.78° C | 81% | 1021.1 hPa | 0 mm | - | 0 W/m² | - |
| 1777699589 | 2.78° C | 81% | 1021 hPa | 0 mm | - | 0 W/m² | - |
| 1777699287 | 2.78° C | 81% | 1021.1 hPa | 0 mm | - | 0 W/m² | - |
| 1777698985 | 3.33° C | 81% | 1020.9 hPa | 0 mm | - | 0 W/m² | - |
| 1777698683 | 3.33° C | 80% | 1020.9 hPa | 0 mm | - | 0 W/m² | - |
| 1777698379 | 3.33° C | 80% | 1021 hPa | 0 mm | - | 0 W/m² | - |
| 1777698075 | 3.33° C | 80% | 1020.9 hPa | 0 mm | - | 0 W/m² | - |
| 1777697772 | 3.33° C | 80% | 1020.7 hPa | 0 mm | - | 0 W/m² | - |
| 1777697469 | 3.33° C | 79% | 1020.8 hPa | 0 mm | - | 0 W/m² | - |
| 1777697165 | 3.33° C | 79% | 1020.6 hPa | 0 mm | - | 0 W/m² | - |
| 1777696862 | 3.33° C | 78% | 1020.5 hPa | 0 mm | - | 0 W/m² | - |
| 1777696560 | 3.89° C | 78% | 1020.6 hPa | 0 mm | - | 0 W/m² | - |
| 1777696256 | 3.89° C | 76% | 1020.5 hPa | 0 mm | - | 0 W/m² | - |
| 1777695951 | 3.89° C | 72% | 1020.5 hPa | 0 mm | - | 0 W/m² | - |
| 1777695649 | 4.44° C | 69% | 1020.5 hPa | 0 mm | - | 0 W/m² | - |
| 1777695347 | 4.44° C | 62% | 1020.5 hPa | 0 mm | - | 0 W/m² | - |
| 1777695044 | 5° C | 61% | 1020.5 hPa | 0 mm | - | 0 W/m² | - |
| 1777694740 | 5° C | 60% | 1020.6 hPa | 0 mm | - | 0 W/m² | - |
| 1777694438 | 5° C | 58% | 1020.5 hPa | 0 mm | - | 0 W/m² | - |
| 1777694133 | 5° C | 56% | 1020.4 hPa | 0 mm | - | 0 W/m² | - |
* Rain latest hour (hover to see other rain measurements)
** Current wind speed in m/s (hover to see current wind gust speed)